Home   Weather   Billings   Past weeks
Flag for USA

Past Weather in Billings, Montana, USA — Yesterday and Last 2 Weeks

Now
45 °F

Passing clouds.


Feels Like: 40 °F
Forecast: 58 / 42 °F
Wind: 10 mph from Southwest

Location: Billings Logan International Airport

Current Time: May 23, 2019 at 5:25:40 am

Latest Report: May 23, 2019 at 4:53 am


Visibility: 10 mi

Pressure: 30.05 "Hg (26.78 "Hg at 946m altitude)

Humidity: 82%

Dew Point: 40 °F

Location of BillingsLocation

Past Weather in Billings — Graph

°F

Billings Temperature Yesterday

Maximum temperature yesterday: 60 °F (at 3:53 pm)
Minimum temperature yesterday: 42 °F (at 1:08 am)
Average temperature yesterday: 50 °F

High & Low Weather Summary for the Past Weeks

 TemperatureHumidityPressure
High86 °F (May 13, 2:53 pm)93% (May 17, 3:53 am)30.25 "Hg (May 17, 3:53 am)
Low34 °F (May 9, 5:53 am)11% (May 13, 5:53 pm)29.58 "Hg (May 17, 9:53 am)
Average52 °F66%29.89 "Hg
* Reported May 8 3:53 am — May 23 3:53 am, Billings. Weather by CustomWeather, © 2019

Note: Actual official high and low records may vary slightly from our data, if they occured in-between our weather recording intervals... More about our weather records

Advertising

Billings Weather History for the Previous 24 Hours

Scroll right to see more
 ConditionsComfort  
Time TempWeatherWind HumidityBarometerVisibility
3:53 am
Thu, May 23
46 °FPassing clouds.12 mph79%30.04 "Hg10 mi
2:53 am47 °FOvercast.14 mph77%30.04 "Hg10 mi
1:53 am48 °FOvercast.16 mph77%30.03 "Hg10 mi
12:53 am48 °FPassing clouds.15 mph74%30.03 "Hg10 mi
11:53 pm
Wed, May 22
49 °FPassing clouds.17 mph71%30.02 "Hg10 mi
10:53 pm49 °FPassing clouds.15 mph71%30.03 "Hg10 mi
9:53 pm50 °FOvercast.14 mph74%30.03 "Hg10 mi
8:53 pm53 °FLight rain. Overcast.8 mph59%30.03 "Hg10 mi
7:53 pm55 °FOvercast.3 mph53%29.98 "Hg10 mi
6:53 pm58 °FOvercast.8 mph44%29.96 "Hg10 mi
5:53 pm59 °FBroken clouds.10 mph41%29.95 "Hg10 mi
4:53 pm59 °FBroken clouds.10 mph42%29.94 "Hg10 mi
3:53 pm60 °FBroken clouds.13 mph39%29.93 "Hg10 mi
2:53 pm59 °FMostly cloudy.13 mph39%29.93 "Hg10 mi
1:53 pm58 °FMostly cloudy.16 mph43%29.92 "Hg10 mi
12:53 pm55 °FMostly cloudy.13 mph49%29.92 "Hg10 mi
11:53 am54 °FMostly cloudy.13 mph53%29.91 "Hg10 mi
10:53 am53 °FMore clouds than sun.16 mph56%29.90 "Hg10 mi
9:53 am52 °FMore clouds than sun.10 mph64%29.89 "Hg10 mi
8:53 am48 °FMore clouds than sun.7 mph77%29.90 "Hg10 mi
7:53 am46 °FMostly cloudy.8 mph73%29.89 "Hg10 mi
6:53 am43 °FMostly cloudy.9 mph86%29.89 "Hg10 mi
5:53 am43 °FLight rain. Mostly cloudy.9 mph82%29.88 "Hg10 mi
Weather by CustomWeather, © 2019

See weather overview